Terminal Aerodrome Forecast
Issued by NWS Anchorage, AK

Home | Current Version | Previous Version | Text Only | Print | Product List | Glossary On
Versions: 1 2 3 4 5 6 7 8 9 10 11 12 13 14 15 16 17 18 19 20 21 22 23 24 25 26 27 28 29 30 31 32 33 34 35 36 37 38 39 40
000
FTAK31 PANC 161739
TAFANC
TAF
PANC 161739Z 1618/1724 VRB03KT P6SM VCSH BKN070
      TEMPO 1618/1620 BKN050
     FM170000 16007G15KT P6SM VCSH BKN070
     FM170700 34006KT P6SM VCSH BKN070 WS020/13035KT
     FM171200 34006KT P6SM -SHRA OVC060 WS012/13040KT=

USA.gov is the U.S. government's official web portal to all federal, state and local government web resources and services.